"Pseudo-MPEC" for A10quWl

Created 2020 Sep 16 23:07:04 UT using Find_Orb

Click here for an explanation of pseudo-MPECs

 
 Astrometry: 
     A10quWl  C2020 09 15.43260800 25 43.84 -36 03 55.7    ~9FE7 15.28oVNEOCPT08
     A10quWl  C2020 09 15.47646000 29 05.80 -35 33 58.0    ~9FE7 15.34oVNEOCPT08
     A10quWl  C2020 09 15.48014300 29 22.15 -35 31 27.8    ~9FE7 15.39oVNEOCPT08
     A10quWl  C2020 09 15.48715100 29 53.06 -35 26 41.9    ~9FE7 15.40oVNEOCPT08
     A10quWl  C2020 09 15.52179500 32 21.36 -35 03 19.1    ~9FE7 15.34oVNEOCPT08
     A10quWl  C2020 09 15.59010300 36 57.41 -34 18 01.3    ~9FGb 15.51oVNEOCPT08
     A10quWl  C2020 09 15.59056400 36 59.21 -34 17 43.4    ~9FGb 15.54oVNEOCPT08
     A10quWl  C2020 09 15.59102600 37 00.96 -34 17 25.9    ~9FGb 15.47oVNEOCPT08
     A10quWl  C2020 09 15.59148700 37 02.80 -34 17 07.5    ~9FGb 15.49oVNEOCPT08
     A10quWl  C2020 09 15.59194900 37 04.60 -34 16 49.3    ~9FGb 15.55oVNEOCPT08
     A10quWl KC2020 09 16u)U_wIj5Lv9gouUWf5jY(x]*7M+swBnQ-W!wl!JBok8DI05:Dql'A44
     A10quWl KC2020 09 16].-V+*$e[1B\ch83eaX#_YpH@ntfuvJ^)Zig_/IJ+_3tQ_lYRlBnA44
     A10quWl KC2020 09 16=ph]Eda)HBM5'\^+gx?;O?TBxpNDmP9d'GEFc)n+V]flBq3t6OI0A44
     A10quWl KC2020 09 16]Eb.s-!#?#[@#'),O4b3T./LA)J,L.,ipYvK]Pj:10qmn#v(?/]MX31
     A10quWl KC2020 09 16rcIUYMb`5HO+Astrometry'%VUF3@1*3%b0a'sxredacted;/la2X31
     A10quWl KC2020 09 16!A_c'ue0m5]ej]R0n]xMEb5[3i'O!)paFQ\2abYvyx@click]Q*+X31
     A10quWl KC2020 09 164(Y3jnm']-0^6E71[ILD\wZBZ1M@y/yfGZ(qg9UXsUo+6W4Z2ZVFX31
     A10quWl KC2020 09 16F]fEm?2mfFMo=:.rr''gf_D,9XNh?tL_s?%_fk+9:H-Hu*Gptan'X31
     A10quWl KC2020 09 16E(oVA$*:]iZ(usCwZEr`OObFII:P#AP`jneLF%/j_le2ibl45-dIX31
     A10quWl KC2020 09 16d3rXOSn5C,.iRgRBDal3$9m@WI^DuJJ0`GMFVpxwHuXG6$4:=6aqX31
     A10quWl KC2020 09 160r@n=;e3@5DZ\KlAXDC-jDZY8xooZrjNi+9#%(!_?hereeeGD/DQX31
     A10quWl KC2020 09 16eiuFHhxqBGQ:7^ws;Vbuv'`CKJA#50R5Xt3P5[WL;o#i0EBtI4yOX31
     A10quWl KC2020 09 16^@,NQ^cc3QmOfO`8jUY?vXErRGugJKAVSLo=5(n]WZ2LMB6mrn8jX31
     A10quWl KC2020 09 16G:fhfor:jm5GG;dQx24UFMLVUolHA;:f.,*IvQ8wxT9_7NMGNMN!X31
     A10quWl KC2020 09 16])JPQkEFexplanation1aT=EWnvpku$_kcvtjwH=LI/s*;?OaPj;X31
     A10quWl KC2020 09 16H5sfC-aGl,dCTtOKR%00KE92O*'QsTm_QUR!-x3JsusoU]u?.tX@X31
     A10quWl  C2020 09 16.34988 01 13 26.45 -28 47 14.5    ~9G8q 16.1 GVNEOCPI52
     A10quWl  C2020 09 16.35027 01 13 27.01 -28 47 07.3    ~9G8q 16.1 GVNEOCPI52
     A10quWl  C2020 09 16.35066 01 13 27.58 -28 47 00.2    ~9G8q 16.1 GVNEOCPI52
     A10quWl  C2020 09 16.35105 01 13 28.12 -28 46 52.4    ~9G8q 16.2 GVNEOCPI52
     A10quWl KC2020 09 16#UjVHO.W*`37W1$'^uWXDfo?+$m=xpZK$WNS?_7YrN6*-rh\)opyE23
     A10quWl KC2020 09 16NlqLb+Mh/^=W!T6N]'XjS\U,+%+_SQVY9b,'qDw4USil'LM9pmPbE23
     A10quWl KC2020 09 16H\G'A,4rbne$TGvSDd.Q-TX3'K]-?3IgIpIjV]?Q(C,Os_M8GYE7E23

Station data:
(A44) Altschwendter Kleine Planeten  (N48.332991 E13.697200)  Austria.
(E23) Arcadia  (S33.621199 E151.071190)  Australia/NSW.
(I52) Steward Observatory, Mt. Lemmon Station  (N32.442547 W110.788920)
   US/Arizona.  Observers T. A. Pruyne, B. M. Africano, E. J. Christensen, G.
   A. Farneth, D. C. Fuls, A. R. Gibbs, A. D. Grauer, H. Gröller, J. A.
   Johnson, R. A. Kowalski, S. M. Larson, G. J. Leonard, D. Rankin, R. L.
   Seaman, F. C. Shelly. 1.0-m reflector + CCD.
(T08) ATLAS-MLO, Mauna Loa  (N19.536152 W155.576050)  US/Hawaii.  Observers
   L. Denneau, A. Heinze, H. Weiland, J. Tonry, H. Flewelling, A.
   Fitzsimmons, D. Young, B. Stalder. Measurers L. Denneau, A. Heinze, J.
   Tonry. 0.5-m f/2.0 Schmidt + CCD.
(X31) Galileo Galilei Observatory, Oro Verde  (S31.823022 W60.520660)
   Argentina.

Orbital elements:  A10quWl
   Perihelion 2020 Aug 15.470407 +/- 0.000728 TT = 11:17:23 (JD 2459076.970407)
Epoch 2020 Sep 16.0 TT = JDT 2459108.5   Earth MOID: 0.0003   Ma: 0.0119
M  17.69074215 +/- 0.0023           (J2000 ecliptic)          AutoNEOCP
n   0.56108373 +/- 6.75e-5          Peri.  145.58522 +/- 0.0011
a   1.45585323 +/- 0.000117         Node   170.91937 +/- 0.00010
e   0.3399717 +/- 5.79e-5           Incl.    6.12983 +/- 0.0008
P   1.76/641.60d           H 25.2   G  0.15   U  6.3  
q 0.96090429 +/- 7.68e-6    Q 1.95080216 +/- 0.000241
From 33 observations 2020 Sept. 15-16 (27.3 hr); mean residual 0".24
Residuals in arcseconds: 
200915 T08  .60-  .16-    200916 A44  .10-  .40+    200916 X31  .03+  .12+    
200915 T08  .33-  .10-    200916 A44  .16+  .08+    200916 X31  .17+  .14+    
200915 T08  .22-  .08-    200916 X31  .44+  .03+    200916 X31  .10-  .16-    
200915 T08  .46+  .42+    200916 X31  .17-  .16-    200916 X31  .08-  .25-    
200915 T08  .30+  .24+    200916 X31  .27+  .12-    200916 I52  .17-  .10-    
200915 T08  .37+  .36+    200916 X31  .45+  .19-    200916 I52  .09-  .17-    
200915 T08  .32+  .19+    200916 X31  .32-  .14+    200916 I52  .13+  .34-    
200915 T08  .40-  .41-    200916 X31  .31+  .10+    200916 I52  .04-  .19+    
200915 T08  .05+  .07-    200916 X31  .25-  .06-    200916 E23  .21-  .10+    
200915 T08  .03-  .03+    200916 X31  .24-  .38-    200916 E23  .14-  .26+    
200916 A44  .09+  .44-    200916 X31  .03+  .07-    200916 E23  .20+  .16+    

Ephemerides (geocentric):
Date (UTC) HH   RA              Dec         delta   r     elong  mag " sig PA
---- -- -- --  -------------   -----------  ------ ------ -----  --- ---- ---
2020 09 16 23  01 27 14.418   -26 02 22.56  .01233 1.0153 144.8 17.1 .051 178
2020 09 17 00  01 27 57.847   -25 54 07.87  .01251 1.0154 144.7 17.2 .053   2
2020 09 17 01  01 28 39.945   -25 46 06.26  .01269 1.0155 144.7 17.2 .056   6
2020 09 17 02  01 29 20.771   -25 38 17.22  .01287 1.0156 144.7 17.2 .059  10
2020 09 17 03  01 30 00.380   -25 30 40.28  .01305 1.0158 144.7 17.2 .063  13
2020 09 17 04  01 30 38.825   -25 23 14.99  .01322 1.0159 144.6 17.3 .066  16
2020 09 17 05  01 31 16.155   -25 16 00.92  .01340 1.0160 144.6 17.3 .070  18
2020 09 17 06  01 31 52.416   -25 08 57.67  .01358 1.0162 144.6 17.3 .074  21
2020 09 17 07  01 32 27.654   -25 02 04.85  .01376 1.0163 144.5 17.4 .078  23
2020 09 17 08  01 33 01.909   -24 55 22.07  .01394 1.0164 144.5 17.4 .083  24
2020 09 17 09  01 33 35.221   -24 48 48.99  .01412 1.0166 144.5 17.4 .087  26
2020 09 17 10  01 34 07.629   -24 42 25.27  .01430 1.0167 144.5 17.5 .091  27
2020 09 17 11  01 34 39.166   -24 36 10.58  .01448 1.0168 144.5 17.5 .096  29
2020 09 17 12  01 35 09.868   -24 30 04.62  .01466 1.0170 144.4 17.5 .100  30
2020 09 17 13  01 35 39.765   -24 24 07.08  .01484 1.0171 144.4 17.5 .104  31
2020 09 17 14  01 36 08.889   -24 18 17.68  .01502 1.0172 144.4 17.6 .109  32
2020 09 17 15  01 36 37.268   -24 12 36.16  .01521 1.0174 144.4 17.6 .113  33
2020 09 17 16  01 37 04.929   -24 07 02.25  .01539 1.0175 144.4 17.6 .118  33
2020 09 17 17  01 37 31.900   -24 01 35.70  .01557 1.0176 144.3 17.6 .122  34
2020 09 17 18  01 37 58.204   -23 56 16.27  .01575 1.0178 144.3 17.7 .127  35
2020 09 17 19  01 38 23.866   -23 51 03.74  .01593 1.0179 144.3 17.7 .131  35
2020 09 17 20  01 38 48.908   -23 45 57.89  .01611 1.0180 144.3 17.7 .135  36
2020 09 17 21  01 39 13.352   -23 40 58.50  .01629 1.0182 144.3 17.7 .140  36
2020 09 17 22  01 39 37.217   -23 36 05.37  .01647 1.0183 144.3 17.8 .144  37
2020 09 17 23  01 40 00.525   -23 31 18.32  .01665 1.0184 144.3 17.8 .149  37
2020 09 18 00  01 40 23.293   -23 26 37.15  .01684 1.0186 144.2 17.8 .153  38
2020 09 18 01  01 40 45.540   -23 22 01.69  .01702 1.0187 144.2 17.8 .157  38
2020 09 18 02  01 41 07.283   -23 17 31.76  .01720 1.0189 144.2 17.9 .161  38
2020 09 18 03  01 41 28.538   -23 13 07.20  .01738 1.0190 144.2 17.9 .166  39
2020 09 18 04  01 41 49.321   -23 08 47.85  .01756 1.0191 144.2 17.9 .170  39
2020 09 18 05  01 42 09.647   -23 04 33.56  .01774 1.0193 144.2 17.9 .174  39
2020 09 18 06  01 42 29.530   -23 00 24.18  .01793 1.0194 144.2 18.0 .178  40
2020 09 18 07  01 42 48.984   -22 56 19.57  .01811 1.0195 144.2 18.0 .182  40
2020 09 18 08  01 43 08.023   -22 52 19.59  .01829 1.0197 144.2 18.0 .186  40
2020 09 18 09  01 43 26.659   -22 48 24.12  .01847 1.0198 144.2 18.0 .190  40
2020 09 18 10  01 43 44.904   -22 44 33.02  .01865 1.0199 144.2 18.0 .194  41
2020 09 18 11  01 44 02.771   -22 40 46.18  .01884 1.0201 144.2 18.1 .198  41
2020 09 18 12  01 44 20.269   -22 37 03.47  .01902 1.0202 144.1 18.1 .202  41
2020 09 18 13  01 44 37.411   -22 33 24.79  .01920 1.0203 144.1 18.1 .206  41
2020 09 18 14  01 44 54.206   -22 29 50.02  .01938 1.0205 144.1 18.1 .210  41
2020 09 18 15  01 45 10.664   -22 26 19.06  .01956 1.0206 144.1 18.1 .214  41
2020 09 18 16  01 45 26.796   -22 22 51.81  .01975 1.0208 144.1 18.2 .217  41
2020 09 18 17  01 45 42.610   -22 19 28.17  .01993 1.0209 144.1 18.2 .221  42
2020 09 18 18  01 45 58.115   -22 16 08.05  .02011 1.0210 144.1 18.2 .225  42
2020 09 18 19  01 46 13.320   -22 12 51.35  .02029 1.0212 144.1 18.2 .228  42
2020 09 18 20  01 46 28.233   -22 09 37.98  .02048 1.0213 144.1 18.2 .232  42
2020 09 18 21  01 46 42.862   -22 06 27.86  .02066 1.0214 144.1 18.3 .236  42
2020 09 18 22  01 46 57.214   -22 03 20.91  .02084 1.0216 144.1 18.3 .239  42